DLH4NV ENBR-EDDM

Flight info

Callsign DLH4NV
Flight time N/A
Altitude 39000
Route TINIG DCT DOSUR DCT SODRO/N0415F310 T703 LULAR/N0400F300 T105 LANDU LANDU2B
Aircraft A20N/M-SDE2E3FGHIRWXY/LB1

Departure

Time 2026-05-06 17:35
Airport Bergen Airport, Flesland (ENBR)

Arrival

Time N/A
Airport Munich Airport (EDDM)
Time Latitude Longitude Altitude Speed Heading
2026-05-06 17:00 60.28740 5.22911 173 ft 0 kts 80°
2026-05-06 17:18 60.28739 5.22901 173 ft 1 kts 80°
2026-05-06 17:18 60.28737 5.22873 173 ft 3 kts 81°
2026-05-06 17:18 60.28734 5.22827 173 ft 4 kts 79°
2026-05-06 17:18 60.28728 5.22776 172 ft 4 kts 76°
2026-05-06 17:19 60.28715 5.22727 170 ft 3 kts
2026-05-06 17:19 60.28712 5.22725 170 ft 0 kts 351°
2026-05-06 17:22 60.28713 5.22723 170 ft 1 kts 340°
2026-05-06 17:23 60.28724 5.22614 168 ft 18 kts 253°
2026-05-06 17:23 60.28751 5.22469 166 ft 10 kts 355°
2026-05-06 17:23 60.28828 5.22444 167 ft 14 kts 349°
2026-05-06 17:23 60.28951 5.22398 166 ft 22 kts 350°
2026-05-06 17:24 60.29094 5.22353 167 ft 21 kts 351°
2026-05-06 17:24 60.29245 5.22298 165 ft 24 kts 350°
2026-05-06 17:24 60.29420 5.22235 159 ft 25 kts 351°
2026-05-06 17:24 60.29605 5.22174 149 ft 26 kts 350°
2026-05-06 17:25 60.29716 5.22120 147 ft 11 kts 316°
2026-05-06 17:25 60.29765 5.22000 148 ft 12 kts 337°
2026-05-06 17:25 60.29854 5.21971 151 ft 13 kts 352°
2026-05-06 17:25 60.29944 5.21944 155 ft 13 kts 351°
2026-05-06 17:26 60.30043 5.21906 158 ft 16 kts 350°
2026-05-06 17:26 60.30156 5.21866 164 ft 17 kts 350°
2026-05-06 17:26 60.30279 5.21828 166 ft 18 kts 353°
2026-05-06 17:26 60.30394 5.21790 172 ft 16 kts 348°
2026-05-06 17:27 60.30500 5.21750 176 ft 11 kts 351°
2026-05-06 17:27 60.30545 5.21735 178 ft 2 kts 350°
2026-05-06 17:27 60.30574 5.21725 179 ft 9 kts 350°
2026-05-06 17:27 60.30601 5.21716 180 ft 0 kts 350°
2026-05-06 17:29 60.30614 5.21711 180 ft 7 kts 351°
2026-05-06 17:30 60.30662 5.21647 181 ft 0 kts 292°
2026-05-06 17:31 60.30663 5.21640 182 ft 3 kts 285°
2026-05-06 17:31 60.30663 5.21585 182 ft 0 kts 261°
2026-05-06 17:33 60.30661 5.21561 182 ft 7 kts 260°
2026-05-06 17:33 60.30642 5.21425 184 ft 11 kts 233°
2026-05-06 17:33 60.30561 5.21405 179 ft 7 kts 171°
2026-05-06 17:34 60.30558 5.21406 179 ft 0 kts 171°
2026-05-06 17:34 60.30390 5.21461 169 ft 61 kts 172°
2026-05-06 17:34 60.29743 5.21674 152 ft 124 kts 170°
2026-05-06 17:34 60.28716 5.22037 204 ft 166 kts 171°
2026-05-06 17:35 60.27606 5.22380 850 ft 161 kts 175°
2026-05-06 17:35 60.26493 5.22695 1615 ft 162 kts 174°
2026-05-06 17:35 60.25344 5.23089 2137 ft 174 kts 171°
2026-05-06 17:36 60.22991 5.25076 3146 ft 205 kts 135°
2026-05-06 17:36 60.22176 5.27569 3600 ft 228 kts 114°
2026-05-06 17:36 60.21572 5.30717 4046 ft 253 kts 107°
2026-05-06 17:36 60.21066 5.34138 4668 ft 269 kts 106°
2026-05-06 17:37 60.20518 5.37767 5605 ft 273 kts 108°
2026-05-06 17:37 60.19899 5.41415 6573 ft 278 kts 109°
2026-05-06 17:37 60.19219 5.45088 7461 ft 282 kts 111°
2026-05-06 17:37 60.18501 5.48784 8373 ft 287 kts 111°
2026-05-06 17:38 60.18011 5.51260 8973 ft 289 kts 111°
2026-05-06 17:38 60.17256 5.55052 9889 ft 294 kts 111°
2026-05-06 17:38 60.16487 5.58912 10535 ft 308 kts 111°
2026-05-06 17:38 60.15661 5.63052 10835 ft 331 kts 111°
2026-05-06 17:39 60.14776 5.67485 11210 ft 349 kts 111°
2026-05-06 17:39 60.13773 5.71961 11935 ft 355 kts 122°
2026-05-06 17:39 60.12132 5.75681 12665 ft 359 kts 144°
2026-05-06 17:39 60.09950 5.78076 13409 ft 360 kts 161°
2026-05-06 17:40 60.07593 5.79884 14115 ft 365 kts 164°
2026-05-06 17:40 60.05191 5.81602 14863 ft 368 kts 165°
2026-05-06 17:40 60.02805 5.83320 15548 ft 372 kts 165°
2026-05-06 17:40 60.00361 5.85120 16251 ft 376 kts 165°
2026-05-06 17:41 59.97895 5.86964 16934 ft 380 kts 165°
2026-05-06 17:41 59.95402 5.88843 17609 ft 385 kts 166°
2026-05-06 17:41 59.92891 5.90740 18319 ft 388 kts 166°
2026-05-06 17:41 59.90349 5.92656 18924 ft 392 kts 166°
2026-05-06 17:42 59.87778 5.94588 19492 ft 396 kts 167°
2026-05-06 17:42 59.85193 5.96534 20135 ft 396 kts 167°
2026-05-06 17:42 59.82604 5.98479 20657 ft 402 kts 167°
2026-05-06 17:42 59.79974 6.00444 21252 ft 406 kts 168°
2026-05-06 17:43 59.77317 6.02429 21818 ft 409 kts 168°
2026-05-06 17:43 59.74636 6.04426 22349 ft 413 kts 168°
2026-05-06 17:43 59.71959 6.06415 22877 ft 417 kts 168°
2026-05-06 17:43 59.69207 6.08455 23448 ft 419 kts 168°
2026-05-06 17:44 59.66461 6.10487 23955 ft 422 kts 168°
2026-05-06 17:44 59.63704 6.12527 24467 ft 424 kts 168°
2026-05-06 17:44 59.60938 6.14568 25008 ft 425 kts 168°
2026-05-06 17:44 59.58166 6.16609 25518 ft 426 kts 168°
2026-05-06 17:45 59.55388 6.18650 26006 ft 428 kts 168°
2026-05-06 17:45 59.52590 6.20701 26463 ft 429 kts 168°
2026-05-06 17:45 59.49783 6.22752 26928 ft 431 kts 168°
2026-05-06 17:45 59.46996 6.24788 27384 ft 432 kts 168°
2026-05-06 17:46 59.44182 6.26841 27836 ft 434 kts 168°
2026-05-06 17:46 59.41328 6.28920 28254 ft 436 kts 168°
2026-05-06 17:46 59.38482 6.30988 28651 ft 438 kts 168°
2026-05-06 17:46 59.35617 6.33068 29083 ft 439 kts 168°
2026-05-06 17:47 59.32746 6.35147 29451 ft 441 kts 168°
2026-05-06 17:47 59.29877 6.37221 29811 ft 443 kts 168°
2026-05-06 17:47 59.27020 6.39282 30151 ft 445 kts 168°
2026-05-06 17:47 59.24110 6.41377 30456 ft 447 kts 168°
2026-05-06 17:48 59.21179 6.43480 30700 ft 450 kts 168°
2026-05-06 17:48 59.18233 6.45591 30972 ft 453 kts 168°
2026-05-06 17:48 59.15270 6.47712 31251 ft 455 kts 168°
2026-05-06 17:48 59.12290 6.49844 31606 ft 455 kts 168°
2026-05-06 17:49 59.09320 6.51965 31940 ft 455 kts 168°
2026-05-06 17:49 59.06338 6.54090 32267 ft 455 kts 167°
2026-05-06 17:49 59.03364 6.56204 32583 ft 456 kts 167°
2026-05-06 17:49 59.00387 6.58317 32932 ft 455 kts 167°
2026-05-06 17:50 58.97407 6.60428 33265 ft 455 kts 167°
2026-05-06 17:50 58.94432 6.62532 33609 ft 455 kts 167°
2026-05-06 17:50 58.91522 6.64586 33940 ft 454 kts 167°
2026-05-06 17:50 58.88494 6.66719 34239 ft 454 kts 167°
2026-05-06 17:51 58.85526 6.68807 34498 ft 453 kts 167°
2026-05-06 17:51 58.82562 6.70887 34723 ft 453 kts 167°
2026-05-06 17:51 58.79595 6.72965 34956 ft 454 kts 167°
2026-05-06 17:51 58.76626 6.75040 35160 ft 454 kts 167°
2026-05-06 17:52 58.73657 6.77113 35387 ft 454 kts 166°
2026-05-06 17:52 58.70728 6.79155 35589 ft 454 kts 166°
2026-05-06 17:52 58.67761 6.81220 35789 ft 454 kts 166°
2026-05-06 17:52 58.64784 6.83286 35980 ft 455 kts 166°
2026-05-06 17:53 58.61807 6.85350 36182 ft 455 kts 166°
2026-05-06 17:53 58.58830 6.87411 36359 ft 455 kts 166°
2026-05-06 17:53 58.55854 6.89467 36541 ft 455 kts 166°
2026-05-06 17:53 58.52865 6.91530 36728 ft 455 kts 166°
2026-05-06 17:54 58.49886 6.93580 36890 ft 456 kts 166°
2026-05-06 17:54 58.46896 6.95634 37052 ft 456 kts 166°
2026-05-06 17:54 58.43912 6.97680 37210 ft 456 kts 166°
2026-05-06 17:54 58.40920 6.99727 37359 ft 456 kts 166°
2026-05-06 17:55 58.37932 7.01769 37531 ft 457 kts 166°
2026-05-06 17:55 58.34934 7.03814 37681 ft 457 kts 165°
2026-05-06 17:55 58.31942 7.05851 37849 ft 457 kts 165°
2026-05-06 17:55 58.28948 7.07886 37984 ft 457 kts 165°
2026-05-06 17:56 58.25949 7.09921 38129 ft 458 kts 165°
2026-05-06 17:56 58.22946 7.11955 38265 ft 458 kts 165°
2026-05-06 17:56 58.19946 7.13983 38412 ft 458 kts 165°
2026-05-06 17:56 58.16941 7.16011 38543 ft 458 kts 165°
2026-05-06 17:57 58.10929 7.20058 38753 ft 458 kts 165°
2026-05-06 17:57 58.07928 7.22073 38871 ft 458 kts 165°
2026-05-06 17:57 58.04965 7.24059 38943 ft 458 kts 165°
2026-05-06 17:58 57.98961 7.28073 38974 ft 456 kts 165°
2026-05-06 17:58 57.92977 7.32058 38973 ft 456 kts 165°
2026-05-06 17:59 57.86998 7.36022 38970 ft 455 kts 165°
2026-05-06 17:59 57.81023 7.39973 38967 ft 455 kts 165°
2026-05-06 18:00 57.75044 7.43915 38968 ft 454 kts 165°
2026-05-06 18:00 57.69080 7.47832 38970 ft 454 kts 165°
2026-05-06 18:01 57.63120 7.51733 38969 ft 453 kts 165°
2026-05-06 18:01 57.57168 7.55615 38976 ft 453 kts 165°
2026-05-06 18:02 57.51255 7.59458 38982 ft 453 kts 165°
2026-05-06 18:02 57.45304 7.63312 38983 ft 452 kts 165°
2026-05-06 18:03 57.39358 7.67149 38983 ft 452 kts 165°
2026-05-06 18:03 57.33423 7.70967 38986 ft 452 kts 165°
2026-05-06 18:04 57.27484 7.74774 38987 ft 451 kts 165°
2026-05-06 18:04 57.21548 7.78566 38992 ft 451 kts 165°
2026-05-06 18:05 57.15619 7.82340 38995 ft 451 kts 165°
2026-05-06 18:05 57.09692 7.86100 38997 ft 450 kts 165°
2026-05-06 18:06 57.03763 7.89849 38995 ft 450 kts 165°
2026-05-06 18:06 56.97839 7.93582 38994 ft 450 kts 165°
2026-05-06 18:07 56.91923 7.97297 38996 ft 450 kts 165°
2026-05-06 18:07 56.86006 8.01001 38995 ft 449 kts 165°
2026-05-06 18:08 56.80096 8.04688 38991 ft 449 kts 165°
2026-05-06 18:08 56.74185 8.08363 38991 ft 448 kts 166°
2026-05-06 18:09 56.68316 8.12000 38992 ft 448 kts 166°
2026-05-06 18:09 56.62396 8.15657 38992 ft 448 kts 166°
2026-05-06 18:10 56.56496 8.19288 38989 ft 448 kts 166°
2026-05-06 18:10 56.50601 8.22905 38991 ft 447 kts 166°
2026-05-06 18:11 56.44705 8.26511 38984 ft 447 kts 166°
2026-05-06 18:11 56.38819 8.30099 38984 ft 447 kts 166°
2026-05-06 18:12 56.32927 8.33679 38977 ft 446 kts 166°
2026-05-06 18:12 56.27073 8.37223 38982 ft 446 kts 166°
2026-05-06 18:13 56.21184 8.40778 38975 ft 446 kts 166°
2026-05-06 18:13 56.15294 8.44322 38968 ft 446 kts 166°
2026-05-06 18:14 56.09407 8.47852 38967 ft 446 kts 166°
2026-05-06 18:14 56.03522 8.51370 38961 ft 445 kts 166°
2026-05-06 18:15 55.97640 8.54875 38956 ft 445 kts 166°
2026-05-06 18:15 55.91766 8.58363 38954 ft 445 kts 166°
2026-05-06 18:16 55.85886 8.61845 38950 ft 445 kts 166°
2026-05-06 18:16 55.80012 8.65311 38940 ft 445 kts 166°
2026-05-06 18:17 55.74143 8.68764 38937 ft 444 kts 166°
2026-05-06 18:17 55.68311 8.72183 38938 ft 444 kts 166°
2026-05-06 18:18 55.62446 8.75612 38935 ft 444 kts 166°
2026-05-06 18:18 55.56579 8.79031 38935 ft 444 kts 166°
2026-05-06 18:19 55.50716 8.82437 38932 ft 444 kts 166°
2026-05-06 18:19 55.44848 8.85835 38930 ft 444 kts 166°
2026-05-06 18:20 55.38979 8.89223 38930 ft 443 kts 166°
2026-05-06 18:20 55.33109 8.92600 38928 ft 444 kts 166°
2026-05-06 18:21 55.27262 8.95955 38931 ft 444 kts 166°
2026-05-06 18:21 55.21389 8.99314 38933 ft 444 kts 166°
2026-05-06 18:22 55.15521 9.02659 38934 ft 444 kts 163°
2026-05-06 18:22 55.09660 9.06062 38929 ft 443 kts 165°
2026-05-06 18:23 55.03780 9.09355 38928 ft 443 kts 166°
2026-05-06 18:23 54.98895 9.12082 38925 ft 444 kts 166°
2026-05-06 18:24 54.93024 9.15385 38918 ft 444 kts 166°
2026-05-06 18:24 54.87139 9.18698 38919 ft 444 kts 166°
2026-05-06 18:25 54.81303 9.22256 38920 ft 446 kts 162°
2026-05-06 18:25 54.75533 9.26203 38922 ft 446 kts 162°
2026-05-06 18:26 54.69747 9.30101 38915 ft 448 kts 162°
2026-05-06 18:26 54.63891 9.33986 38915 ft 453 kts 162°
2026-05-06 18:27 54.57961 9.37898 38910 ft 458 kts 162°
2026-05-06 18:27 54.51976 9.41833 38908 ft 462 kts 162°
2026-05-06 18:28 54.45948 9.45783 38909 ft 465 kts 162°
2026-05-06 18:28 54.39888 9.49742 38910 ft 466 kts 162°
2026-05-06 18:29 54.33856 9.53669 38883 ft 467 kts 162°